Regional Weather Roundup
Issued by NWS

Home | Current Version | Previous Version | Text Only | Print | Product List | Glossary On
Versions: 1 2 3 4 5 6 7 8 9 10 11 12 13 14 15 16 17 18 19 20 21 22 23 24 25 26 27 28 29 30 31 32 33 34 35 36 37 38 39 40 41 42 43 44 45 46 47 48 49 50
000
ASUS44 KLUB 301701
RWRTX
WEST TEXAS WEATHER ROUNDUP
NATIONAL WEATHER SERVICE LUBBOCK TX
1200 PM CDT SAT AUG 30 2014

NOTE: "FAIR" INDICATES FEW OR NO CLOUDS BELOW 12,000 FEET WITH NO
SIGNIFICANT WEATHER AND/OR OBSTRUCTIONS TO VISIBILITY.

TXZ004-006>008-010-012-014-016-OKZ002-301800-
TEXAS PANHANDLE/OKLAHOMA PANHANDLE

CITY           SKY/WX    TMP DP  RH WIND       PRES   REMARKS
AMARILLO       SUNNY     87  56  34 SW10      30.10F
BORGER         SUNNY     88  53  30 VRB5      30.06S
CANADIAN       SUNNY     84  68  57 CALM      30.02S
DALHART        SUNNY     84  56  38 SW16      30.11F
DUMAS          SUNNY     85  57  38 SW6       30.09F
GUYMON         PTSUNNY   86  57  37 SE9       30.03F
HEREFORD       SUNNY     85  61  43 S6        30.12F
PAMPA          SUNNY     85  54  34 CALM      30.08S
PERRYTON       SUNNY     85  59  40 SE6       30.05S
$$

TXZ026-029-035-045-048-301800-
SOUTHERN PANHANDLE/SOUTH PLAINS/ROLLING PLAINS

CITY           SKY/WX    TMP DP  RH WIND       PRES   REMARKS
CHILDRESS      SUNNY     84  71  65 W5        30.02F
SEMINOLE       SUNNY     87  54  32 S5        30.10S
LUBBOCK        MOSUNNY   84  63  49 W6        30.09S
PLAINVIEW      SUNNY     83  60  45 W7        30.09S
SNYDER         SUNNY     85  67  53 W6        30.05S
$$

TXZ052-054-060>062-072-078-127-140-154-169-301800-
PERMIAN BASIN/CONCHO VALLEY/BIG COUNTRY/EDWARDS PLATEAU

CITY           SKY/WX    TMP DP  RH WIND       PRES   REMARKS
ABILENE        SUNNY     89  69  51 N6        30.01F
BIG SPRING     SUNNY     85  65  51 SW3       30.07S
BRADY          MOSUNNY   88  70  55 N5        30.00F
BROWNWOOD      PTSUNNY   88  70  55 W7        29.99S
JUNCTION       SUNNY     88  67  49 VRB5      29.99F
MIDLAND        SUNNY     86  64  47 CALM      30.05S
ODESSA         SUNNY     86  62  44 S5        30.06S
SAN ANGELO     SUNNY     90  68  48 VRB7      30.00F
SONORA         SUNNY     82  70  65 VRB5      30.06S
SWEETWATER     SUNNY     84  68  58 NW5       30.07S
WINK           SUNNY     92  50  23 VRB6      30.02F
$$

TXZ055-058-074-075-080-082-301800-
FAR WEST/SOUTHWEST MOUNTAINS/TRANS PECOS

CITY           SKY/WX    TMP DP  RH WIND       PRES   REMARKS
ALPINE         SUNNY     87  47  25 NE6       30.19F
DRYDEN           N/A     93  67  42 E7        30.00S HX  96
EL PASO        MOSUNNY   86  52  30 VRB3      30.08F
FORT STOCKTON  SUNNY     88  62  41 VRB5      30.05S
GUADALUPE PASS SUNNY     82  54  37 E7G18     30.23S
MARFA          SUNNY     81  61  50 W3        30.19F
PRESIDIO       FAIR      89  62  41 SE5       30.02F
$$

TXZ014-016-019-021>030-083-301800
TEXAS TECH WEST TEXAS MESONET/TEXAS PANHANDLE/NORTHERN SOUTH PLAINS

CITY           SKY/WX    TMP DP  RH WIND       PRES   REMARKS
ABERNATHY 5ENE   N/A     86  58  37 SW3       30.10F
AMARILLO 9NNE    N/A     86  60  40 NW6       30.08F
AMARILLO 7SSE    N/A     86  57  37 W9        30.11F
AMHERST 1NE      N/A     83  58  43 SW6       30.12S
BOOTLEG 11WNW    N/A     85  54  34 SW10      30.16S
CANADIAN 6E      N/A     86  66  52 W2        30.01F
CAPROCK CYN SP   N/A     86  64  47 S2        30.06F
CHILDRESS 2NNE   N/A     85  69  57 NW5       30.02S
CLARENDON 2WSW   N/A     84  65  51 W8        30.06S
CLAUDE 12SW      N/A     82  66  57 SW6       30.10S
DIMMITT 2NE      N/A     83  58  43 SW9       30.12F
FLOYDADA 2NNE    N/A     82  65  57 W5        30.10R
FRIONA 2NE       N/A     84  58  40 S7        30.13F
GOODLETT 3W      N/A     87  67  51 SW6       29.99S
HART 3N          N/A     82  64  53 SW7       30.12S
HEREFORD 2NW     N/A     83  58  42 SW8       30.12F
MCLEAN 1E        N/A     87  62  43 W5        30.04S
MEMPHIS 1NE      N/A     86  68  54 SW5       30.02S
MULESHOE 2SSW    N/A     85  54  34 S3        30.12S
OLTON 6S         N/A     84  60  43 W6        30.11S
PALO DURO SP     N/A     86  61  42 SW6       30.11F
PAMPA 2E         N/A     84  62  47 W2        30.07F
PLAINVIEW 1S     N/A     83  64  53 W9        30.10S
SILVERTON 7ESE   N/A     84  63  49 W8        30.09S
TULIA 2ENE       N/A     83  61  48 SW8       30.11S
TURKEY 2WSW      N/A     85  69  57 SW6       30.04S
UMBARGER 3NNE    N/A     84  57  39 SW10      30.12F
$$

TXZ033>036-039>041-045>048-301800
TEXAS TECH WEST TEXAS MESONET/SOUTH PLAINS

CITY           SKY/WX    TMP DP  RH WIND       PRES   REMARKS
AIKEN 3WSW       N/A     82  64  54 W6        30.11S
ANDREWS 2NE      N/A     89  49  25 E6        30.08R
ANTON 6SSW       N/A     84  62  47 SW6       30.10S
BROWNFIELD 2S    N/A     83  62  50 S6        30.10S
DENVR CTY 7WNW   N/A     83  60  45 SE3       30.11S
GAIL 2ESE        N/A     86  66  51 W7        30.04S
LAMESA 2SE       N/A     84  65  51 SW1       30.08F
LEVELLAND 4S     N/A     83  61  46 SW3       30.11S
LUBBOCK 3WNW     N/A     82  63  51 SW3       30.10S
MORTON 1ENE      N/A     83  62  48 S3        30.12S
ODONNELL 1N      N/A     85  62  46 SW6       30.09S
PLAINS 3N        N/A     84  61  46 S3        30.11F
RALLS 1SE        N/A     82  65  56 W3        30.10S
REESE CENTER     N/A     83  61  47 SW6       30.10F
SEAGRAVES 1SW    N/A     84  62  46 SW2       30.10S
SEMINOLE 2NNE    N/A     86  55  33 SW2       30.09S
SLATON 2NE       N/A     82  65  56 SW7       30.09S
SNYDER 3E        N/A     86  67  52 NW3       30.04S
SUNDOWN 8SW      N/A     84  60  43 SW5       30.11S
TAHOKA 3NNE      N/A     85  61  44 W6        30.08S
WOLFFORTH 6SSW   N/A     83  63  49 SW3       30.10F
$$

TXZ031-032-036>038-042>044-301800-
TEXAS TECH WEST TEXAS MESONET/ROLLING PLAINS

CITY           SKY/WX    TMP DP  RH WIND       PRES   REMARKS
ASPERMONT 3NE    N/A     85  70  60 W3        30.01S
FLUVANNA 3WNW    N/A     85  64  48 W5        30.05F
GRAHAM 5SSW      N/A     84  62  47 W6        30.07S
GUTHRIE 10WSW    N/A     87  68  53 W2        30.02S
HASKELL 1NW      N/A     85  69  57 NW3       29.99F
KNOX CITY 3NW    N/A     87  68  52 W3        29.99F
LK A HENRY 1NW   N/A     87  65  47 W6        30.03F
NORTHFIELD 1S    N/A     85  71  62 W5        30.03S
ODELL 4ENE       N/A     87  71  58 S2        29.99S
PADUCAH 10SW     N/A     86  68  55 W7        30.02S
POST 1NE         N/A     88  60  39 S5        30.05S
RRING SPRGS 3N   N/A     83  69  61 NW3       30.06F
SEYMOUR 3NW      N/A     85  70  60 NW3       29.98F
SPUR 1W          N/A     84  67  56 N2        30.03F
WEINERT 2NNE     N/A     87  71  59 N6        30.00S
WHITE RVR 6NE    N/A     85  65  51 W3        30.06S
$$

TXZ052-054-060>062-072-078-127-140-154-169-301800-
TEXAS TECH WEST TEXAS MESONET/PERMIAN BASIN/
CONCHO VALLEY/BIG COUNTRY/EDWARDS PLATEAU

CITY           SKY/WX    TMP DP  RH WIND       PRES   REMARKS
JUNCTION 1SSW    N/A     88  69  54 NW2       30.00F
MERTZON 3NNE     N/A     89  68  50 S1        30.02F
SAN ANGELO 7NW   N/A     87  66  49 SW3       30.01F
STRLNG CT 4WSW   N/A     85  68  55 SW3       30.04S
ST LAWRNCE 5SW   N/A     83  66  57 S3        30.05S
SWEETWATR 11SW   N/A     85  69  58 W7        30.05S
WALL 1E          N/A     85  69  60 SW2       30.02S
$$

TXZ055-058-074-075-080-082-301800-
TEXAS TECH WEST TEXAS MESONET/FAR WEST/SOUTHWEST MOUNTAINS/TRANS PECOS

CITY           SKY/WX    TMP DP  RH WIND       PRES   REMARKS
PRSMN GAP BBNP   N/A     88  65  46 N6        30.03F
GUADLPE MTN NP   N/A     80  51  36 E7        30.24S
$$



USA.gov is the U.S. government's official web portal to all federal, state and local government web resources and services.